• En España
  • Lista de países
  • Para 7 días
  • Temperatura del agua
  • Mapa Satelital
  • El tiempo en el mapa
  • Informadores
  • user-avatar
    Iniciar sesión

    Tiempo cada hora Ashtarak

    Hoy, 23 Mayo, Miércoles

    Tiempo Temperatura Precipitaciones Viento Presión Humedad
    00:00 +15°C° 0,3 mm 2 mps 661 mmHg 81%
    01:00 +15°C° 0,2 mm 1 mps 661 mmHg 82%
    02:00 +15°C° 0,2 mm 1 mps 661 mmHg 83%
    03:00 +14°C° 0,2 mm 1 mps 661 mmHg 84%
    04:00 +15°C° 0,2 mm 1 mps 661 mmHg 82%
    05:00 +15°C° 0,2 mm 1 mps 661 mmHg 80%
    06:00 +16°C° 0,2 mm 1 mps 662 mmHg 78%
    07:00 +17°C° 0,1 mm 2 mps 662 mmHg 72%
    08:00 +19°C° 0,1 mm 2 mps 662 mmHg 65%
    09:00 +20°C° 0,1 mm 2 mps 662 mmHg 59%
    10:00 +21°C° 0,3 mm 2 mps 662 mmHg 56%
    11:00 +22°C° 0,3 mm 3 mps 662 mmHg 53%
    12:00 +24°C° 0,3 mm 3 mps 662 mmHg 50%
    13:00 +24°C° 0,6 mm 3 mps 662 mmHg 50%
    14:00 +24°C° 0,6 mm 3 mps 662 mmHg 50%
    15:00 +25°C° 0,6 mm 4 mps 661 mmHg 49%
    16:00 +24°C° 0,6 mm 3 mps 661 mmHg 53%
    17:00 +22°C° 0,6 mm 3 mps 661 mmHg 56%
    18:00 +21°C° 0,6 mm 3 mps 661 mmHg 59%
    19:00 +20°C° 0,3 mm 3 mps 661 mmHg 63%
    20:00 +18°C° 0,3 mm 3 mps 661 mmHg 67%
    21:00 +17°C° 0,3 mm 3 mps 661 mmHg 70%
    22:00 +16°C° 0 mm 2 mps 660 mmHg 69%
    23:00 +16°C° 0 mm 2 mps 660 mmHg 68%

    Mañana, 24 Mayo, Jueves

    Tiempo Temperatura Precipitaciones Viento Presión Humedad
    00:00 +15°C° 0 mm 2 mps 660 mmHg 68%
    01:00 +15°C° 0 mm 2 mps 660 mmHg 67%
    02:00 +14°C° 0 mm 2 mps 660 mmHg 67%
    03:00 +14°C° 0 mm 2 mps 659 mmHg 67%
    04:00 +14°C° 0 mm 2 mps 659 mmHg 66%
    05:00 +15°C° 0 mm 2 mps 659 mmHg 65%
    06:00 +15°C° 0 mm 2 mps 659 mmHg 64%
    07:00 +17°C° 0 mm 2 mps 660 mmHg 58%
    08:00 +19°C° 0 mm 2 mps 660 mmHg 51%
    09:00 +21°C° 0 mm 1 mps 660 mmHg 44%
    10:00 +21°C° 0 mm 2 mps 660 mmHg 42%
    11:00 +23°C° 0 mm 2 mps 660 mmHg 39%
    12:00 +24°C° 0 mm 2 mps 660 mmHg 37%
    13:00 +25°C° 0 mm 2 mps 659 mmHg 37%
    14:00 +25°C° 0 mm 2 mps 659 mmHg 38%
    15:00 +25°C° 0 mm 3 mps 659 mmHg 38%
    16:00 +24°C° 0,1 mm 2 mps 658 mmHg 42%
    17:00 +24°C° 0,1 mm 2 mps 658 mmHg 45%
    18:00 +23°C° 0,1 mm 2 mps 658 mmHg 49%
    19:00 +20°C° 0 mm 2 mps 658 mmHg 54%
    20:00 +18°C° 0 mm 2 mps 657 mmHg 59%
    21:00 +16°C° 0 mm 2 mps 657 mmHg 64%
    22:00 +16°C° 0 mm 2 mps 657 mmHg 65%
    23:00 +15°C° 0 mm 2 mps 657 mmHg 66%

    Pasado mañana, 25 Mayo, Viernes

    Tiempo Temperatura Precipitaciones Viento Presión Humedad
    00:00 +15°C° 0 mm 2 mps 657 mmHg 67%
    01:00 +14°C° 0 mm 2 mps 656 mmHg 67%
    02:00 +14°C° 0 mm 1 mps 656 mmHg 67%
    03:00 +14°C° 0 mm 1 mps 656 mmHg 67%
    04:00 +15°C° 0 mm 1 mps 656 mmHg 66%
    05:00 +15°C° 0 mm 1 mps 656 mmHg 66%
    06:00 +16°C° 0 mm 1 mps 656 mmHg 65%
    07:00 +19°C° 0 mm 1 mps 657 mmHg 60%
    08:00 +20°C° 0 mm 1 mps 657 mmHg 55%
    09:00 +21°C° 0 mm 2 mps 657 mmHg 49%
    10:00 +21°C° 0,1 mm 2 mps 657 mmHg 49%
    11:00 +23°C° 0,1 mm 2 mps 656 mmHg 48%
    12:00 +24°C° 0,1 mm 2 mps 656 mmHg 47%
    13:00 +24°C° 0,5 mm 2 mps 656 mmHg 47%
    14:00 +25°C° 0,5 mm 2 mps 656 mmHg 46%
    15:00 +25°C° 0,5 mm 2 mps 656 mmHg 46%
    16:00 +24°C° 0,8 mm 2 mps 655 mmHg 50%
    17:00 +23°C° 0,8 mm 2 mps 655 mmHg 54%
    18:00 +23°C° 0,8 mm 1 mps 655 mmHg 57%
    19:00 +21°C° 0,7 mm 1 mps 655 mmHg 61%
    20:00 +20°C° 0,7 mm 1 mps 655 mmHg 64%
    21:00 +18°C° 0,7 mm 1 mps 655 mmHg 68%
    22:00 +18°C° 0,3 mm 1 mps 655 mmHg 68%
    23:00 +18°C° 0,3 mm 1 mps 655 mmHg 69%

    26 Mayo, Sábado

    Tiempo Temperatura Precipitaciones Viento Presión Humedad
    00:00 +16°C° 0,3 mm 1 mps 655 mmHg 69%
    01:00 +16°C° 0,2 mm 1 mps 655 mmHg 70%
    02:00 +16°C° 0,2 mm 1 mps 655 mmHg 71%
    03:00 +15°C° 0,2 mm 1 mps 655 mmHg 72%
    04:00 +16°C° 0,2 mm 1 mps 655 mmHg 71%
    05:00 +18°C° 0,2 mm 1 mps 655 mmHg 70%
    06:00 +18°C° 0,2 mm 1 mps 656 mmHg 69%
    07:00 +19°C° 0,2 mm 1 mps 656 mmHg 64%
    08:00 +21°C° 0,2 mm 1 mps 656 mmHg 60%
    09:00 +22°C° 0,2 mm 1 mps 656 mmHg 56%
    10:00 +23°C° 0,4 mm 2 mps 656 mmHg 53%
    11:00 +24°C° 0,4 mm 2 mps 656 mmHg 51%
    12:00 +25°C° 0,4 mm 2 mps 656 mmHg 48%
    13:00 +25°C° 1 mm 2 mps 656 mmHg 48%
    14:00 +25°C° 1 mm 2 mps 656 mmHg 48%
    15:00 +26°C° 1 mm 2 mps 656 mmHg 48%
    16:00 +24°C° 2,3 mm 2 mps 656 mmHg 54%
    17:00 +22°C° 2,3 mm 3 mps 656 mmHg 60%
    18:00 +21°C° 2,3 mm 3 mps 656 mmHg 66%
    19:00 +20°C° 1,1 mm 3 mps 656 mmHg 69%
    20:00 +19°C° 1,1 mm 2 mps 657 mmHg 72%
    21:00 +18°C° 1,1 mm 2 mps 657 mmHg 75%
    22:00 +17°C° 0,7 mm 2 mps 657 mmHg 75%
    23:00 +18°C° 0,7 mm 1 mps 657 mmHg 75%

    27 Mayo, Domingo

    Tiempo Temperatura Precipitaciones Viento Presión Humedad
    00:00 +18°C° 0,7 mm 1 mps 657 mmHg 76%
    01:00 +16°C° 0,3 mm 1 mps 658 mmHg 76%
    02:00 +16°C° 0,3 mm 1 mps 658 mmHg 76%
    03:00 +16°C° 0,3 mm 1 mps 658 mmHg 76%
    04:00 +16°C° 0,1 mm 1 mps 658 mmHg 75%
    05:00 +18°C° 0,1 mm 1 mps 659 mmHg 75%
    06:00 +18°C° 0,1 mm 1 mps 659 mmHg 74%
    07:00 +19°C° 0 mm 1 mps 660 mmHg 67%
    08:00 +20°C° 0 mm 2 mps 661 mmHg 61%
    09:00 +21°C° 0 mm 2 mps 661 mmHg 54%
    10:00 +23°C° 0 mm 2 mps 662 mmHg 51%
    11:00 +24°C° 0 mm 2 mps 662 mmHg 48%
    12:00 +25°C° 0 mm 2 mps 662 mmHg 44%
    13:00 +25°C° 0,1 mm 2 mps 662 mmHg 45%
    14:00 +25°C° 0,1 mm 2 mps 662 mmHg 45%
    15:00 +25°C° 0,1 mm 2 mps 662 mmHg 46%
    16:00 +24°C° 0,1 mm 3 mps 662 mmHg 50%
    17:00 +22°C° 0,1 mm 3 mps 662 mmHg 55%
    18:00 +21°C° 0,1 mm 4 mps 662 mmHg 59%
    19:00 +20°C° 0 mm 4 mps 662 mmHg 64%
    20:00 +18°C° 0 mm 3 mps 662 mmHg 69%
    21:00 +17°C° 0 mm 3 mps 662 mmHg 74%
    22:00 +16°C° 0 mm 3 mps 662 mmHg 75%
    23:00 +14°C° 0 mm 3 mps 662 mmHg 76%

    28 Mayo, Lunes

    Tiempo Temperatura Precipitaciones Viento Presión Humedad
    00:00 +15°C° 0 mm 2 mps 662 mmHg 77%
    01:00 +15°C° 0 mm 2 mps 662 mmHg 77%
    02:00 +14°C° 0 mm 2 mps 662 mmHg 76%
    03:00 +14°C° 0 mm 1 mps 662 mmHg 76%
    04:00 +15°C° 0 mm 1 mps 662 mmHg 73%
    05:00 +16°C° 0 mm 1 mps 662 mmHg 70%
    06:00 +16°C° 0 mm 0 mps 662 mmHg 67%
    07:00 +20°C° 0 mm 1 mps 662 mmHg 61%
    08:00 +21°C° 0 mm 1 mps 662 mmHg 55%
    09:00 +23°C° 0 mm 1 mps 662 mmHg 50%
    10:00 +24°C° 0 mm 2 mps 662 mmHg 47%
    11:00 +25°C° 0 mm 2 mps 662 mmHg 44%
    12:00 +27°C° 0 mm 2 mps 661 mmHg 41%
    13:00 +27°C° 0 mm 2 mps 661 mmHg 40%
    14:00 +27°C° 0 mm 2 mps 661 mmHg 39%
    15:00 +28°C° 0 mm 2 mps 660 mmHg 39%
    16:00 +27°C° 0,2 mm 1 mps 660 mmHg 43%
    17:00 +26°C° 0,2 mm 1 mps 660 mmHg 47%
    18:00 +26°C° 0,2 mm 1 mps 660 mmHg 52%
    19:00 +24°C° 0,5 mm 1 mps 660 mmHg 56%
    20:00 +21°C° 0,5 mm 2 mps 660 mmHg 61%
    21:00 +19°C° 0,5 mm 2 mps 660 mmHg 66%
    22:00 +19°C° 0,5 mm 2 mps 660 mmHg 68%
    23:00 +18°C° 0,5 mm 2 mps 660 mmHg 71%
    Mostrar más